Presure
285 145 323 294 345 110 307 299 293 284 278 292 299 354 299 287 279 284 269 280 263 252 241 246 243 255 213 239 230 219 213 206 222 217 217 215 217 222 217 225 214 214 221 220 212 215 221
295 248 344 336 285 252 317 291 302 285 282 274 281 277 293 353 283 268 247 266 256 250 240 244 242 230 251 258 237 221 218 217 202 207 216 215 219 211 203 214 223 208 215 216 216 220 216
144 278 128 281 338 311 304 311 300 269 274 274 279 265 273 273 306 269 261 274 259 252 263 247 242 251 234 245 251 219 223 213 217 203 206 217 211 217 214 211 216 212 208 207 214 207 213
148 268 202 288 317 329 292 296 298 286 269 265 262 267 261 271 273 289 362 266 271 265 257 241 251 247 258 265 231 250 226 228 212 217 203 210 213 208 210 213 209 199 218 210 207 215 206
140 274 238 281 325 303 308 293 287 285 266 250 254 253 259 262 267 269 287 339 303 272 267 264 253 268 242 267 296 261 222 215 220 211 202 218 203 214 205 195 184 204 215 220 208 209 209
151 330 250 290 338 285 154 284 285 275 256 258 263 270 253 250 253 272 261 296 324 328 279 270 270 268 270 297 275 262 229 226 222 214 200 205 207 208 212 217 197 202 204 213 220 208 208
262 344 254 297 331 299 303 304 282 282 318 500 509 501 296 250 250 265 262 273 318 315 309 293 292 293 283 279 271 253 229 232 227 215 209 204 207 206 207 205 206 201 201 211 213 222 206
229 312 254 293 334 324 310 306 297 517 491 489 480 476 474 312 254 251 271 268 295 293 282 279 277 270 271 273 256 250 243 229 225 217 203 202 206 207 204 206 211 208 207 211 219 219 226
255 308 257 333 328 312 321 298 505 490 502 575 526 530 481 488 302 254 269 254 290 285 274 271 266 265 262 263 268 252 239 228 226 224 208 204 150 210 207 210 206 209 217 222 230 227 228
263 160 276 329 331 324 311 497 500 559 517 452 551 556 485 475 470 262 259 246 281 283 266 261 265 255 244 242 248 244 235 233 223 218 210 210 210 210 211 212 217 225 230 233 233 229 96
265 170 283 297 337 324 303 529 572 457 435 444 469 507 479 466 493 263 259 241 278 282 264 265 257 237 233 229 223 220 219 214 211 218 216 213 215 216 218 225 233 239 235 231 230 227 228
263 246 295 332 332 320 426 456 458 435 475 428 459 484 480 461 368 264 249 249 273 291 262 262 242 237 220 231 224 213 238 254 278 245 230 230 231 231 233 242 242 231 235 227 227 232 238
265 262 313 336 330 320 401 559 456 445 454 465 450 469 476 466 341 263 251 246 274 295 264 252 238 236 229 216 237 279 278 269 269 268 264 266 261 256 249 243 240 235 230 236 239 243 246
265 257 281 343 335 317 415 505 444 465 435 432 432 468 500 475 337 263 250 251 271 292 254 237 231 232 224 215 283 273 267 263 259 259 261 261 250 239 237 238 239 235 235 243 227 239 240
303 257 292 316 334 313 413 463 503 474 452 425 448 484 460 394 340 262 249 235 271 284 256 241 229 225 222 225 276 268 256 254 252 246 238 231 229 230 230 221 213 219 223 232 225 241 240
304 265 299 321 335 313 409 491 517 466 473 438 439 506 513 359 337 263 252 215 256 276 256 233 231 228 220 212 248 249 263 256 245 231 218 211 210 209 211 219 221 221 227 232 274 337 335
301 279 292 331 334 312 404 458 480 459 445 432 453 495 507 338 325 258 240 234 233 275 253 233 225 227 224 216 213 211 216 215 217 211 210 212 213 216 218 213 162 232 307 328 352 347 335
303 286 295 327 336 314 399 480 465 432 427 423 474 464 398 335 334 256 239 239 229 274 254 231 228 229 224 220 216 215 217 212 214 212 213 219 218 202 217 246 293 285 269 318 316 115 339
120 267 296 333 328 313 399 490 459 436 434 439 451 469 348 399 338 276 242 238 228 257 255 238 236 224 223 223 218 214 216 218 217 213 219 198 214 234 266 275 297 271 277 268 255 345 131
196 261 314 326 325 308 421 479 461 428 419 435 474 445 342 362 315 278 240 237 223 223 252 252 237 228 216 221 224 223 222 216 217 214 202 219 239 261 239 241 264 255 272 257 284 301 323
157 258 314 339 323 309 432 467 401 391 393 416 419 375 335 220 312 271 240 239 233 224 233 251 249 235 227 226 215 215 215 219 215 217 220 249 235 243 248 237 247 238 261 266 281 281 295
257 275 328 330 320 313 471 437 381 358 386 411 422 377 356 335 305 286 236 230 238 209 231 231 241 256 252 242 218 233 217 215 216 221 249 246 225 246 233 227 80 228 244 250 267 280 281
258 251 317 326 324 313 429 413 380 361 343 336 372 340 344 342 313 277 214 143 231 228 229 226 229 234 237 230 225 217 203 205 221 253 179 245 237 242 232 216 231 240 231 235 243 255 273
266 251 312 317 327 308 357 402 385 370 344 333 344 333 337 342 327 331 241 224 229 194 221 227 222 226 221 212 207 216 194 222 257 224 183 233 231 229 233 228 213 216 232 229 236 238 248
267 154 297 307 332 305 287 380 366 346 339 345 309 316 321 324 328 320 315 220 187 230 215 228 224 225 222 220 220 202 226 232 251 243 233 236 246 201 242 242 215 216 216 221 224 236 237
259 279 303 293 326 306 285 363 356 343 354 291 333 313 314 323 318 316 320 259 227 224 229 230 225 225 184 220 198 214 223 207 234 200 248 206 219 221 171 233 235 228 224 213 224 214 218
192 278 301 315 294 302 283 267 328 341 321 321 296 315 305 294 301 300 304 315 247 236 237 227 223 222 216 221 225 222 229 251 228 236 231 222 220 199 226 229 211 142 161 221 219 210 216
145 277 293 281 289 295 287 270 352 327 328 325 306 305 304 305 296 302 305 309 286 228 241 230 220 221 225 215 226 217 249 257 238 232 207 234 219 217 174 157 177 218 152 225 223 213 218
236 283 289 282 307 303 292 272 263 342 334 324 315 307 312 298 297 289 301 305 303 283 243 239 231 230 222 219 238 223 260 251 225 182 230 213 213 210 215 197 141 184 221 202 232 209 227
Wind_Speed
94 75 84 73 34 41 29 30 32 32 33 31 32 34 58 62 67 72 78 84 85 81 79 76 78 75 74 86 89 83 83 82 82 81 85 84 83 81 77 71 78 78 72 69 75 74 72
99 85 68 47 70 33 29 29 28 34 33 34 34 39 39 46 70 64 66 81 81 80 77 74 73 75 74 87 86 82 80 83 80 77 80 79 78 77 73 70 68 75 68 67 66 66 70
82 94 69 82 41 40 38 30 26 33 32 34 36 42 41 45 37 71 68 83 83 79 79 78 75 76 78 79 89 81 84 79 80 77 76 75 74 72 72 70 66 69 72 70 68 72 65
82 92 79 84 53 39 52 42 37 32 38 39 42 41 47 46 48 42 45 75 81 83 81 73 78 76 79 78 81 90 80 86 78 76 75 74 74 74 72 70 67 68 68 73 74 68 70
78 97 81 86 53 63 45 48 48 46 42 44 47 49 49 51 51 50 41 48 72 83 83 82 75 83 72 73 70 87 78 74 79 77 73 75 73 72 72 69 71 67 65 70 75 72 71
83 98 95 89 56 76 28 61 57 53 56 59 63 62 55 57 54 51 54 41 48 55 79 76 82 80 74 63 74 82 77 78 78 76 73 73 73 72 73 75 70 67 66 68 71 76 74
111 98 103 94 67 78 69 69 63 65 74 64 57 52 73 61 59 55 54 46 42 42 47 55 60 60 61 62 72 76 75 79 76 73 73 72 71 73 72 70 72 72 72 70 73 75 78
106 104 106 99 79 78 81 78 77 67 62 54 48 48 47 78 66 60 53 39 41 48 52 55 55 57 57 61 69 73 78 76 73 74 72 70 72 74 73 75 76 76 76 76 77 78 77
117 92 110 91 88 91 88 83 65 58 52 21 26 33 38 51 75 63 53 47 46 51 54 53 56 55 53 54 62 70 73 72 73 72 70 69 47 76 76 78 76 78 80 81 79 78 77
123 82 114 98 94 96 94 66 52 33 25 29 14 20 32 48 52 66 53 54 46 54 56 53 54 54 52 53 54 59 63 68 68 68 69 72 75 76 77 79 81 80 80 78 78 79 20
124 85 114 109 96 98 95 44 31 37 29 22 8 14 30 46 47 66 57 56 51 57 54 54 52 52 53 53 58 59 60 61 61 68 71 71 72 75 77 80 79 78 77 79 81 82 81
124 105 111 102 97 98 71 55 43 34 16 18 15 12 26 43 73 67 60 59 56 57 53 51 50 49 50 48 53 54 55 59 62 71 76 75 77 76 78 79 78 73 78 77 77 80 78
124 119 109 101 100 99 78 30 35 28 12 7 8 11 26 39 75 68 65 59 55 55 52 51 48 48 47 48 46 42 45 49 53 56 61 66 70 72 71 73 72 70 72 77 80 86 84
125 121 114 102 100 99 73 33 35 13 10 5 10 4 16 38 75 67 60 50 50 48 49 48 47 44 43 44 37 40 41 44 48 49 52 53 53 54 61 62 66 68 72 78 66 74 79
111 123 113 106 98 98 72 38 3 4 4 8 5 1 26 71 76 67 53 33 43 48 52 52 46 44 42 38 35 36 36 37 37 37 35 36 41 45 49 50 50 59 64 70 67 78 80
108 120 111 106 98 97 71 26 3 5 5 2 2 5 26 68 72 64 52 39 44 48 51 47 44 42 40 38 30 33 31 32 29 32 28 34 36 43 44 48 56 59 66 75 80 68 74
108 114 111 103 99 96 70 32 14 14 15 9 4 22 36 67 72 57 43 44 43 47 51 46 43 41 39 37 36 35 31 28 28 30 31 34 37 42 44 45 34 69 45 42 54 63 70
104 110 108 100 98 95 67 19 13 9 10 7 13 31 62 67 72 56 47 48 41 47 52 47 43 39 36 37 35 33 26 30 26 29 31 36 35 35 44 49 26 28 37 39 41 19 60
61 112 105 95 94 94 64 18 11 11 14 9 23 45 63 68 70 59 52 51 45 45 51 46 43 37 36 36 35 31 29 27 28 29 31 25 33 39 27 17 17 27 34 26 23 37 20
90 110 98 92 90 90 49 20 12 20 19 15 18 47 54 61 63 59 54 49 43 40 45 47 44 40 36 35 31 28 26 26 26 26 24 30 31 16 29 21 26 26 31 28 32 48 36
75 106 96 87 86 85 39 22 21 15 23 27 36 44 45 11 55 55 56 54 49 41 41 42 45 42 39 36 29 26 26 26 24 26 27 26 20 22 8 7 20 23 43 40 49 47 51
107 100 90 85 83 81 21 13 11 9 21 24 36 42 45 52 58 57 54 50 49 35 41 40 38 39 40 37 29 29 26 23 22 24 21 19 17 15 3 10 7 25 42 47 51 55 48
103 99 90 85 78 78 22 11 14 3 16 15 33 33 42 46 50 57 33 6 49 46 44 41 39 37 35 35 32 27 17 17 20 19 18 12 15 2 6 2 20 32 33 41 45 54 53
98 95 85 83 75 76 42 9 19 14 19 22 25 29 31 32 41 42 51 35 47 28 41 42 40 37 35 29 21 24 20 18 17 10 15 6 6 9 11 10 1 18 34 34 41 41 49
94 52 86 81 72 72 70 12 7 9 17 26 19 26 26 29 32 38 46 28 28 50 38 44 40 39 38 34 30 21 20 14 17 9 1 11 12 7 4 11 14 18 24 30 35 41 38
87 84 78 78 68 65 68 20 3 9 17 13 33 26 25 26 27 28 29 61 43 41 49 48 43 41 23 33 25 21 18 16 8 10 15 11 11 9 5 20 22 13 20 21 26 26 29
72 80 75 64 69 63 63 61 30 10 8 19 9 21 22 24 24 28 32 34 61 54 54 45 44 43 34 33 31 24 20 20 16 12 12 11 3 11 21 23 20 8 7 21 23 19 22
60 78 75 71 65 59 58 57 17 18 14 22 16 21 20 24 26 25 28 33 46 32 57 49 42 40 40 33 29 22 21 24 22 19 23 17 16 9 4 12 4 18 6 14 20 19 18
70 75 72 68 55 52 48 52 50 26 24 22 22 23 22 24 23 27 29 29 37 52 57 55 51 49 42 30 33 27 27 27 32 14 18 23 22 16 14 2 12 4 14 9 8 11 9
Wind_Direction
355 339 357 359 319 331 297 286 282 272 267 269 270 266 245 246 243 232 236 232 233 231 237 238 235 235 235 234 237 237 236 239 241 243 246 247 249 249 250 247 251 254 254 253 257 258 256
356 351 350 339 358 324 311 293 283 273 269 262 261 258 257 254 241 242 238 231 232 234 237 236 235 234 233 233 234 236 238 238 238 240 243 245 247 247 244 248 244 250 251 250 250 252 253
338 355 345 354 323 334 335 304 291 277 267 265 259 257 249 250 249 240 240 231 235 238 233 234 235 235 233 232 231 234 235 238 239 237 242 244 245 246 248 245 243 243 248 248 246 251 252
338 355 348 353 338 311 342 329 314 292 272 263 260 255 252 247 242 244 249 238 237 235 238 239 237 236 238 236 233 230 234 236 238 239 238 241 243 243 245 246 243 246 243 247 249 248 250
336 353 349 352 331 340 322 323 318 305 291 278 262 255 251 250 246 240 242 242 235 235 238 238 238 241 233 239 233 228 232 233 236 237 237 241 242 243 244 243 243 249 243 247 250 248 247
337 350 351 351 331 345 334 330 317 305 297 286 277 264 246 245 248 242 237 245 234 230 236 238 240 239 240 236 228 226 231 231 233 235 236 240 242 244 246 247 246 246 245 247 247 248 247
352 349 351 349 334 341 331 326 319 309 296 290 282 272 250 239 239 238 233 234 236 230 225 223 228 228 228 228 224 226 229 230 233 232 235 238 242 244 247 248 248 246 247 250 247 248 248
348 349 351 348 335 332 333 328 323 304 300 294 279 265 255 234 231 234 229 226 226 218 215 217 220 222 224 223 223 224 225 228 231 230 233 238 242 245 247 249 250 251 252 253 253 249 249
351 343 350 343 339 341 334 333 313 310 305 305 280 250 238 220 223 226 221 219 224 215 217 215 219 219 219 221 222 223 226 229 231 232 233 238 239 243 247 249 251 252 254 254 253 252 252
351 337 348 344 339 339 338 325 319 313 310 297 301 259 221 216 209 215 213 216 220 213 215 215 215 213 213 213 218 222 227 230 232 233 235 238 241 244 248 250 253 256 256 256 255 253 252
351 338 348 348 341 341 340 328 320 322 311 292 286 283 212 212 195 207 204 213 214 210 212 212 210 210 213 215 219 222 227 231 235 236 239 241 244 247 250 254 257 257 255 254 251 251 252
351 345 348 345 343 343 340 334 330 321 319 289 250 250 211 207 183 198 203 208 211 206 206 208 206 210 215 219 223 228 230 232 231 237 240 241 245 248 251 254 253 252 253 256 261 264 264
349 349 348 345 345 345 345 330 327 321 312 344 251 260 202 199 184 195 202 205 207 202 201 201 204 209 213 217 225 226 224 225 230 234 237 241 244 248 250 252 255 258 263 265 264 265 265
348 348 350 346 346 347 348 335 329 319 319 249 243 311 214 187 183 196 203 201 201 196 197 198 200 204 209 217 223 225 224 227 230 234 239 243 247 251 255 259 262 263 265 269 267 267 263
346 347 349 350 348 348 351 336 291 284 176 267 285 254 184 175 184 193 199 184 187 191 193 196 198 200 207 213 219 223 224 227 231 233 236 242 248 257 261 261 267 268 271 274 275 277 274
347 346 347 349 350 350 352 341 42 50 35 31 274 166 165 174 179 191 193 177 184 189 190 193 197 200 204 208 210 215 223 229 228 232 229 240 249 255 265 271 276 282 285 283 282 281 277
347 348 348 347 351 353 353 351 62 58 70 76 72 155 169 173 180 189 186 188 196 189 187 193 197 199 204 208 211 216 216 220 224 234 243 251 257 269 276 283 279 287 298 308 292 281 277
347 348 348 348 350 355 354 4 55 57 80 112 129 157 164 174 180 188 185 192 197 187 188 196 198 198 202 208 212 217 218 228 235 243 252 261 272 268 289 291 294 317 300 332 336 251 283
345 347 349 349 351 355 353 11 57 67 60 123 150 155 170 164 178 182 186 192 196 184 189 196 198 198 205 212 215 218 225 234 241 252 260 259 287 293 302 334 350 359 3 340 0 351 289
343 346 348 349 353 356 354 14 51 96 100 114 147 159 169 170 176 177 187 193 197 195 187 194 199 202 207 213 219 223 231 241 251 261 262 288 290 289 302 308 21 26 16 2 18 32 26
341 345 347 350 353 357 355 17 124 128 122 131 146 160 165 186 179 175 184 191 196 196 193 192 197 203 209 212 216 222 233 242 255 269 281 286 286 307 313 352 32 22 33 32 36 37 43
341 347 346 349 353 358 11 73 128 20 114 145 145 150 163 172 178 180 186 200 191 203 197 199 196 200 207 209 220 217 233 247 261 279 273 276 307 295 351 35 289 43 48 42 34 45 52
340 343 346 348 354 356 352 25 172 195 114 124 132 157 159 171 184 179 190 296 193 196 197 199 200 199 198 205 214 224 215 241 269 255 240 282 301 59 27 144 40 55 57 51 46 46 50
341 343 346 347 356 354 359 48 163 149 126 129 140 150 155 162 182 190 192 196 196 202 201 201 205 201 210 220 220 231 217 249 239 252 237 319 252 55 36 68 93 59 56 57 55 55 52
342 346 346 346 355 353 359 5 125 147 151 139 159 152 166 169 176 190 195 205 199 199 208 203 206 204 212 220 225 213 239 247 214 256 277 281 202 203 34 81 84 64 63 60 59 53 57
341 345 346 345 354 354 354 346 272 176 157 350 165 171 177 167 170 176 187 191 206 204 201 201 206 207 204 218 195 223 226 211 182 208 246 143 118 128 122 86 89 86 70 65 66 66 65
338 343 344 347 346 349 351 357 343 235 277 180 239 177 172 170 171 177 183 187 197 201 198 204 207 212 217 220 225 221 227 224 204 201 171 174 218 140 110 99 98 249 144 84 72 73 67
329 342 341 344 343 347 346 351 242 302 247 202 220 206 188 179 181 186 186 184 195 206 199 206 213 215 219 216 220 214 216 214 198 168 197 230 156 183 216 231 292 110 204 89 98 96 91
340 340 338 343 346 344 342 345 349 260 234 240 220 211 205 191 191 191 186 188 186 194 203 205 209 212 217 218 222 218 208 210 193 201 187 186 180 186 180 197 220 93 118 134 17 123 65